Atlantic - Newfoundland: Past 24 Hour Conditions

 

Stephenville Airport

08:30 PM NDT 16 September 2014
This table is a summary of hourly weather conditions for the past 24 hours.
Date / Time
(NDT)
Wind(knots) Conditions Visibility(km) Pressure(kPa) Air tempC) Relative humidity(%) Dew pointC)
16 September 2014
20:30 WSW 12 Partly Cloudy 24 101.3 14 66 8
19:30 WSW 11 Cloudy 24 101.3 14 63 7
18:30 WSW 14 Cloudy 24 101.4 15 57 6
17:30 WSW 16 Mostly Cloudy 24 101.3 15 57 7
16:30 WSW 14 Partly Cloudy 24 101.3 16 55 7
15:30 W 12 gust 17 Mainly Sunny 24 101.3 16 56 7
14:30 WSW 12 Mainly Sunny 24 101.3 16 49 6
13:30 WNW 12 Mainly Sunny 24 101.3 16 48 5
12:30 WNW 13 Partly Cloudy 24 101.4 15 53 6
11:30 NW 12 gust 17 Partly Cloudy 24 101.4 15 51 5
10:30 W 13 Mainly Sunny 24 101.3 14 58 6
9:30 WNW 15 Partly Cloudy 24 101.4 13 68 8
8:30 W 13 gust 18 Mostly Cloudy 24 101.3 12 71 7
7:30 W 12 gust 17 Mostly Cloudy 24 101.3 12 72 7
6:30 W 10 Partly Cloudy 24 101.3 11 74 7
5:30 W 11 gust 18 Mainly Clear 24 101.2 12 70 6
4:30 W 11 gust 17 Mainly Clear 24 101.3 11 68 5
3:30 W 11 Mainly Clear 24 101.3 11 68 6
2:30 W 9 Cloudy 24 101.3 12 69 7
1:30 WNW 8 Cloudy 24 101.3 12 73 7
0:30 W 8 Cloudy 24 101.4 12 78 8
15 September 2014
23:30 W 8 Cloudy 24 101.4 12 82 9
22:30 WNW 5 Cloudy 24 101.4 12 84 9
21:30 WNW 6 Light Rainshower 24 101.4 12 85 9
20:30 WNW 5 Cloudy 24 101.4 14 68 8
 
Map of Atlantic - Newfoundland marine weather areas Southwestern Grand Banks - 44138 Banquereau - 44139 Tail of the Bank - 44140 Nickerson Bank - 44251 Northeast Burgeo Bank - 44255 Blanc-Sablon Airport Cap Whittle Chevery Natashquan Airport Heath Point Miscou Island Grand Étang Ingonish Beach North Mountain St.Paul Island J.A. Douglas McCurdy Sydney Airport Charlottetown Airport East Point North Cape Argentia Bonavista Burgeo Cape Race Corner Brook Daniel's Harbour Englee Ferolle Point La Scie Port aux Basques Rocky Harbour Sagona Island St. Anthony Airport St. John's Int'l Airport St. Lawrence Stephenville Airport Twillingate Winterland Wreckhouse Cartwright Airport Mary's Harbour Grates Cove Pool's Island Marticot Island Long Pond Îles de la Madeleine Airport
Legend: buoyBuoy land stationLand Station